When you browse on this site, cookies collect data to enhance your experience and personalize the content and advertising you see.
Visit our Privacy Policy to learn more. By continuing to use the site, you agree to this use of cookies and data.
  • In Hungary
  • List of Countries
  • For 7 days
  • Water Temperature
  • Weather Map
  • News
  • Weather Widgets
  • user-avatar
    Login

    Hourly Weather Crato

    Today, 19 November, Tuesday

    Time Temperature Precipitation Wind Pressure Humidity
    00:00 +26°C° 0 mm 2 mps 716 mmHg 72%
    01:00 +25°C° 0.1 mm 2 mps 716 mmHg 77%
    02:00 +24°C° 0.1 mm 1 mps 716 mmHg 82%
    03:00 +23°C° 0.1 mm 1 mps 716 mmHg 88%
    04:00 +23°C° 0 mm 1 mps 716 mmHg 87%
    05:00 +24°C° 0 mm 1 mps 717 mmHg 86%
    06:00 +24°C° 0 mm 1 mps 717 mmHg 86%
    07:00 +26°C° 0 mm 2 mps 717 mmHg 73%
    08:00 +29°C° 0 mm 2 mps 718 mmHg 61%
    09:00 +31°C° 0 mm 3 mps 718 mmHg 49%
    10:00 +34°C° 0 mm 3 mps 718 mmHg 42%
    11:00 +36°C° 0 mm 3 mps 717 mmHg 36%
    12:00 +38°C° 0 mm 3 mps 716 mmHg 30%
    13:00 +38°C° 0 mm 3 mps 716 mmHg 28%
    14:00 +38°C° 0 mm 3 mps 715 mmHg 27%
    15:00 +38°C° 0 mm 2 mps 714 mmHg 25%
    16:00 +36°C° 0 mm 2 mps 714 mmHg 28%
    17:00 +34°C° 0 mm 2 mps 714 mmHg 31%
    18:00 +31°C° 0 mm 1 mps 714 mmHg 34%
    19:00 +30°C° 0 mm 1 mps 714 mmHg 36%
    20:00 +29°C° 0 mm 1 mps 715 mmHg 38%
    21:00 +28°C° 0 mm 1 mps 715 mmHg 40%
    22:00 +27°C° 0 mm 1 mps 716 mmHg 46%
    23:00 +26°C° 0 mm 1 mps 716 mmHg 53%

    Tomorrow, 20 November, Wednesday

    Time Temperature Precipitation Wind Pressure Humidity
    00:00 +25°C° 0 mm 1 mps 716 mmHg 60%
    01:00 +25°C° 0 mm 1 mps 716 mmHg 68%
    02:00 +24°C° 0 mm 1 mps 716 mmHg 75%
    03:00 +24°C° 0 mm 1 mps 716 mmHg 83%
    04:00 +24°C° 0 mm 1 mps 716 mmHg 83%
    05:00 +24°C° 0 mm 1 mps 716 mmHg 83%
    06:00 +24°C° 0 mm 1 mps 717 mmHg 82%
    07:00 +26°C° 0 mm 2 mps 717 mmHg 72%
    08:00 +29°C° 0 mm 2 mps 718 mmHg 61%
    09:00 +31°C° 0 mm 2 mps 718 mmHg 50%
    10:00 +34°C° 0 mm 2 mps 718 mmHg 44%
    11:00 +36°C° 0 mm 2 mps 717 mmHg 37%
    12:00 +37°C° 0 mm 2 mps 717 mmHg 31%
    13:00 +38°C° 0 mm 2 mps 716 mmHg 28%
    14:00 +38°C° 0 mm 2 mps 715 mmHg 26%
    15:00 +38°C° 0 mm 2 mps 714 mmHg 23%
    16:00 +36°C° 0 mm 2 mps 714 mmHg 26%
    17:00 +34°C° 0 mm 2 mps 714 mmHg 28%
    18:00 +31°C° 0 mm 1 mps 713 mmHg 31%
    19:00 +30°C° 0 mm 1 mps 714 mmHg 33%
    20:00 +29°C° 0 mm 2 mps 714 mmHg 35%
    21:00 +28°C° 0 mm 2 mps 715 mmHg 37%
    22:00 +27°C° 0 mm 2 mps 715 mmHg 45%
    23:00 +26°C° 0 mm 2 mps 715 mmHg 53%

    Day after tomorrow, 21 November, Thursday

    Time Temperature Precipitation Wind Pressure Humidity
    00:00 +25°C° 0 mm 2 mps 715 mmHg 60%
    01:00 +24°C° 0 mm 1 mps 715 mmHg 66%
    02:00 +23°C° 0 mm 1 mps 715 mmHg 73%
    03:00 +23°C° 0 mm 1 mps 715 mmHg 79%
    04:00 +23°C° 0 mm 1 mps 715 mmHg 79%
    05:00 +23°C° 0 mm 1 mps 716 mmHg 78%
    06:00 +23°C° 0 mm 1 mps 716 mmHg 78%
    07:00 +26°C° 0 mm 2 mps 717 mmHg 65%
    08:00 +29°C° 0 mm 2 mps 717 mmHg 53%
    09:00 +32°C° 0 mm 2 mps 718 mmHg 40%
    10:00 +34°C° 0 mm 2 mps 717 mmHg 35%
    11:00 +36°C° 0 mm 2 mps 717 mmHg 30%
    12:00 +38°C° 0 mm 2 mps 716 mmHg 24%
    13:00 +38°C° 0 mm 2 mps 715 mmHg 23%
    14:00 +38°C° 0 mm 2 mps 714 mmHg 22%
    15:00 +38°C° 0 mm 2 mps 714 mmHg 21%
    16:00 +36°C° 0 mm 2 mps 713 mmHg 24%
    17:00 +33°C° 0 mm 1 mps 713 mmHg 27%
    18:00 +31°C° 0 mm 1 mps 713 mmHg 30%
    19:00 +31°C° 0 mm 1 mps 714 mmHg 31%
    20:00 +30°C° 0 mm 1 mps 714 mmHg 32%
    21:00 +29°C° 0 mm 1 mps 715 mmHg 34%
    22:00 +28°C° 0 mm 1 mps 715 mmHg 41%
    23:00 +27°C° 0 mm 1 mps 715 mmHg 49%

    22 November, Friday

    Time Temperature Precipitation Wind Pressure Humidity
    00:00 +26°C° 0 mm 2 mps 715 mmHg 57%
    01:00 +25°C° 0 mm 1 mps 715 mmHg 63%
    02:00 +25°C° 0 mm 1 mps 715 mmHg 69%
    03:00 +24°C° 0 mm 1 mps 715 mmHg 74%
    04:00 +24°C° 0 mm 1 mps 715 mmHg 76%
    05:00 +24°C° 0 mm 1 mps 715 mmHg 77%
    06:00 +24°C° 0 mm 1 mps 716 mmHg 78%
    07:00 +26°C° 0 mm 1 mps 716 mmHg 66%
    08:00 +29°C° 0 mm 2 mps 717 mmHg 54%
    09:00 +32°C° 0 mm 2 mps 717 mmHg 42%
    10:00 +35°C° 0 mm 2 mps 717 mmHg 37%
    11:00 +37°C° 0 mm 2 mps 716 mmHg 31%
    12:00 +39°C° 0 mm 2 mps 715 mmHg 25%
    13:00 +39°C° 0 mm 2 mps 715 mmHg 23%
    14:00 +39°C° 0 mm 2 mps 714 mmHg 21%
    15:00 +40°C° 0 mm 3 mps 713 mmHg 19%
    16:00 +37°C° 0 mm 2 mps 713 mmHg 22%
    17:00 +35°C° 0 mm 2 mps 713 mmHg 25%
    18:00 +32°C° 0 mm 2 mps 713 mmHg 28%
    19:00 +31°C° 0 mm 1 mps 713 mmHg 31%
    20:00 +29°C° 0 mm 1 mps 714 mmHg 33%
    21:00 +28°C° 0 mm 1 mps 714 mmHg 36%
    22:00 +27°C° 0 mm 1 mps 715 mmHg 44%
    23:00 +26°C° 0 mm 1 mps 715 mmHg 52%

    23 November, Saturday

    Time Temperature Precipitation Wind Pressure Humidity
    00:00 +24°C° 0 mm 1 mps 715 mmHg 61%
    01:00 +24°C° 0 mm 1 mps 715 mmHg 68%
    02:00 +23°C° 0 mm 1 mps 715 mmHg 75%
    03:00 +22°C° 0 mm 1 mps 715 mmHg 82%
    04:00 +23°C° 0 mm 1 mps 715 mmHg 82%
    05:00 +23°C° 0 mm 1 mps 716 mmHg 81%
    06:00 +23°C° 0 mm 1 mps 716 mmHg 81%
    07:00 +26°C° 0 mm 1 mps 717 mmHg 68%
    08:00 +29°C° 0 mm 2 mps 717 mmHg 54%
    09:00 +32°C° 0 mm 2 mps 718 mmHg 41%
    10:00 +35°C° 0 mm 2 mps 717 mmHg 35%
    11:00 +37°C° 0 mm 2 mps 717 mmHg 30%
    12:00 +39°C° 0 mm 2 mps 716 mmHg 24%
    13:00 +39°C° 0 mm 2 mps 715 mmHg 24%
    14:00 +39°C° 0 mm 2 mps 715 mmHg 23%
    15:00 +39°C° 0 mm 2 mps 714 mmHg 23%
    16:00 +36°C° 0 mm 1 mps 714 mmHg 26%
    17:00 +34°C° 0 mm 1 mps 714 mmHg 29%
    18:00 +32°C° 0 mm 1 mps 714 mmHg 32%
    19:00 +32°C° 0 mm 1 mps 714 mmHg 33%
    20:00 +31°C° 0 mm 1 mps 714 mmHg 35%
    21:00 +30°C° 0 mm 1 mps 715 mmHg 36%
    22:00 +29°C° 0 mm 1 mps 715 mmHg 43%
    23:00 +28°C° 0 mm 2 mps 715 mmHg 49%

    24 November, Sunday

    Time Temperature Precipitation Wind Pressure Humidity
    00:00 +27°C° 0 mm 2 mps 715 mmHg 56%
    01:00 +26°C° 0.1 mm 2 mps 715 mmHg 67%
    02:00 +24°C° 0.1 mm 2 mps 715 mmHg 78%
    03:00 +23°C° 0.1 mm 1 mps 714 mmHg 89%
    04:00 +23°C° 0 mm 1 mps 715 mmHg 89%
    05:00 +23°C° 0 mm 1 mps 715 mmHg 88%
    06:00 +24°C° 0 mm 1 mps 716 mmHg 88%
    07:00 +27°C° 0 mm 2 mps 716 mmHg 73%
    08:00 +29°C° 0 mm 2 mps 717 mmHg 59%
    09:00 +32°C° 0 mm 2 mps 717 mmHg 44%
    10:00 +35°C° 0 mm 2 mps 717 mmHg 38%
    11:00 +37°C° 0 mm 2 mps 716 mmHg 33%
    12:00 +39°C° 0 mm 2 mps 716 mmHg 27%
    13:00 +39°C° 0 mm 2 mps 715 mmHg 27%
    14:00 +39°C° 0 mm 2 mps 714 mmHg 27%
    15:00 +37°C° 0 mm 1 mps 713 mmHg 27%
    16:00 +35°C° 0 mm 1 mps 713 mmHg 30%
    17:00 +34°C° 0 mm 1 mps 713 mmHg 33%
    18:00 +32°C° 0 mm 1 mps 713 mmHg 36%
    19:00 +31°C° 0 mm 1 mps 713 mmHg 38%
    20:00 +31°C° 0 mm 1 mps 714 mmHg 40%
    21:00 +28°C° 0 mm 0 mps 714 mmHg 42%
    22:00 +29°C° 0 mm 1 mps 714 mmHg 49%
    23:00 +28°C° 0 mm 2 mps 715 mmHg 56%
    Show more